Regional Weather Roundup
Issued by NWS Charleston, SC

Current Version | Previous Version | Graphics & Text | Print | Product List | Glossary On
Versions: 1 2 3 4 5 6 7 8 9 10 11 12 13 14 15 16 17 18 19 20 21 22 23 24 25 26 27 28 29 30 31 32 33 34 35 36 37 38 39 40 41 42 43 44 45 46 47 48 49 50
000
ASUS42 KCHS 270113
RWRCHS

REGIONAL WEATHER ROUNDUP
NATIONAL WEATHER SERVICE CHARLESTON SC
900 PM EDT THU MAY 26 2016

NOTE: "FAIR" INDICATES FEW OR NO CLOUDS BELOW 12,000 FEET WITH NO
SIGNIFICANT WEATHER AND/OR OBSTRUCTIONS TO VISIBILITY.

NOT ALL STATIONS ARE QUALITY CONTROLLED. USE DATA WITH CAUTION...
ESPECIALLY DEWPOINT OBSERVATIONS.

SCZ027-030-031-034>040-042>050-270200-
...SOUTHEAST SOUTH CAROLINA...

CITY           SKY/WX    TMP DP  RH WIND       PRES   REMARKS
N CHARLESTON   PTCLDY    75  62  64 S8        30.13R
WATERFRONT PRK   N/A     76  67  73 SE7       30.10R
MOUNT PLEASANT NOT AVBL
JOHNS ISLAND   NOT AVBL
PINOPOLIS        N/A     79  59  50 VRB2      30.05R
MONCKS CORNER  NOT AVBL
SUMMERVILLE    NOT AVBL
BEAUFORT MCAS  CLEAR     74  65  73 CALM      30.13R
BEAUFORT ARPT  NOT AVBL
HILTON HEAD IS NOT AVBL
WALTERBORO     NOT AVBL
ALLENDALE      NOT AVBL

...SOUTHERN MIDLANDS AND PEE DEE...

CITY           SKY/WX    TMP DP  RH WIND       PRES   REMARKS
GEORGETOWN     NOT AVBL
KINGSTREE      NOT AVBL
ORANGEBURG     CLEAR     78  62  57 S10       30.11R
BARNWELL       NOT AVBL
AIKEN          NOT AVBL
MANNING        NOT AVBL
COLUMBIA       PTCLDY    81  62  52 S6        30.08R
SUMTER         CLEAR     79  63  57 SE8       30.07R
FLORENCE       CLEAR     78  60  53 S9        30.11R
MYRTLE BEACH   CLEAR     75  61  60 S10       30.15R
N MYRTLE BEACH CLEAR     75  66  73 S7        30.13R

$$

GAZ063-065-086>088-099>101-113>116-118-119-134>141-150-270200-
...SOUTHEAST GEORGIA...

CITY           SKY/WX    TMP DP  RH WIND       PRES   REMARKS
SAVANNAH ARPT  PTCLDY    75  62  64 SE7       30.12R
HUNTER AAF     CLEAR     74  65  74 SE5       30.10R
FORT STEWART   CLEAR     73  60  62 CALM      30.10R
STATESBORO     CLEAR     77  60  54 SE6       30.11R
SYLVANIA       CLEAR     79  58  48 CALM      30.12R
CLAXTON        FAIR      76  57  50 E3        30.11R

...CSRA...CENTRAL AND FAR SOUTHEAST GEORGIA...

CITY           SKY/WX    TMP DP  RH WIND       PRES   REMARKS
THOMSON        MOCLDY    76  70  80 CALM      30.14R
AUGUSTA-BUSH   PTCLDY    76  65  68 SE7       30.07R
AUGUSTA-DANIEL PTCLDY    82  64  54 SE6       30.09R
SWAINSBORO     MOCLDY    79  63  57 SE9       30.11R
VIDALIA        CLEAR     79  59  50 SE3       30.11R
EASTMAN        MOCLDY    80  63  54 SE3       30.11R
HAZLEHURST     FAIR      80  58  46 CALM      30.09R
ALMA           CLEAR     76  57  51 SE5       30.10R
WAYCROSS       CLEAR     76  58  54 SE6       30.10S
JESUP          FAIR      70  57  64 SE5       30.12R
BAXLEY         FAIR      79  52  38 SE6       30.10R
BRUNSWICK      CLEAR     79  64  61 CALM      30.13R
SAINT SIMONS   CLEAR     75  63  66 E9        30.11R

$$

SCZ027-028-034-036>038-045-046-048>050-GAZ119-141-270200-
...LAKE AND SUPPLEMENTAL COASTAL OBSERVATIONS...

STATION/POSITION TIME  TEMP    WIND        PRES    WAVE   SWELL
                       AIR SEA DIR/SP/G            HT/PER HT/PER/DIR
                 (UTC) (F)     (DEG/KT/KT) (MB)    (FT/S) (FT/S/D)
WINYAH BAY       2345   76     170/  8     1019.0
LAKE MURRAY      0000   83     150/  7/  8 1017.6R
ACE BASIN NERRS  NOT AVBL
FORT PULASKI     0000                      1020.1R
SAPELO ISLAND    0000   77     110/  4     1019.0F

$$

ANZ835-935-AMZ111-154-330-350-352-354-370-450-454-472-270200-
...C-MAN AND BUOY OBSERVATIONS...

STATION/POSITION TIME  TEMP    WIND        PRES    WAVE   SWELL
                       AIR SEA DIR/SP/G            HT/PER HT/PER/DIR
                 (UTC) (F)     (DEG/KT/KT) (MB)    (FT/S) (FT/S/D)
BUOY 41004       0050   78 78  120/ 10/ 12 1019.8R   2/ 9   2/ 9
BUOY 41008       0050   78 78  130/ 10/ 12 1019.8    2/ 8   2/100/ 8
FOLLY BEACH CMAN 0000   76     140/  7/  9 1020.1S
CAPERS NEARSHORE 0008   76 78  160/  8/ 10 1019.8R
FRIPP NEARSHORE  0008   77 79  150/ 10/ 14 1019.3R


STATION/POSITION TIME  TEMP    WIND        PRES    WAVE   SWELL
                       AIR SEA DIR/SP/G            HT/PER HT/PER/DIR
                 (UTC) (F)     (DEG/KT/KT) (MB)    (FT/S) (FT/S/D)
5E ST. MARYS GA  0001      78                N/A     2/ 8
FRYING PAN BUOY  0000   77 78  130/ 10/ 12 1020.0F
BUOY 41025       0050   76 74  180/ 12/ 14 1020.8    2/ 8   2/120/ 8
CAPE LOOKOUT NC  0000   74     160/ 10/ 11 1020.3F
BUOY 41002       0050   76 78   70/ 14/ 16 1020.8    3/ 4   2/ 90/ 8
BUOY 41010       0020   76 79   80/ 16/ 17 1018.3S
ST AUGUSTINE FL  0100   77 80   80/ 12/ 14 1020.1R


$$




USA.gov is the U.S. government's official web portal to all federal, state and local government web resources and services.